[[{"header":{"parameterUnit":"m.s-1","parameterCategory":1,"la1":30.2992,"la2":30.254,"lo1":-89.0895,"lo2":-89.0443,"dy":0.0025,"dx":0.0025,"nx":19,"ny":19,"refTime":"2026-05-24T21:00:00:Z","depth":0,"parameterNumber":2,"parameterNumberName":"U-component_of_WINDS"},"data":[0,0,0,1.1392,1.1395,1.1533,1.1533,1.1705,1.1706,0,0,0,0,0,0,0,0,0,0,0,1.1344,1.1345,1.1392,1.1395,1.1533,1.1533,1.1705,1.1706,0,0,0,0,0,0,0,0,0,0,0,1.1344,1.1345,1.1346,1.1396,1.1532,1.1533,1.1704,1.1603,0,0,0,0,0,0,0,0,0,0,1.1471,1.1418,1.1344,1.1346,1.1397,1.1532,1.1533,1.1598,1.161,1.1639,0,1.1659,0,1.1685,1.1717,1.1718,0,0,0,1.1402,1.1408,1.1452,1.1346,1.1398,1.1532,1.1473,1.1605,1.1617,1.1654,1.1662,1.1668,1.1688,1.1718,1.1719,1.1859,1.1859,0,0,1.1395,1.1366,1.1443,1.1459,1.1432,1.1468,1.1477,1.1612,1.1621,1.1662,1.1673,1.1691,1.1719,1.172,1.1858,1.1859,0,0,0,1.1368,1.136,1.1401,1.1452,1.1477,1.1472,1.1482,1.1615,1.163,1.1675,1.1693,1.172,1.1722,1.1858,1.1858,1.1846,0,0,0,1.1364,1.1345,1.1397,1.1381,1.1474,1.1547,1.1481,1.1621,1.1637,1.1692,1.172,1.1724,1.1857,1.1858,1.1846,1.1847,0,0,0,1.1338,1.1342,1.1358,1.1379,1.1436,1.1545,1.1568,1.1625,1.1648,1.1718,1.1724,1.1857,1.1858,1.1846,1.1846,1.1877,0,0,0,1.1303,1.1346,1.1358,1.1415,1.1435,1.1535,1.1568,1.1645,1.1703,1.1721,1.1858,1.1858,1.1845,1.1846,1.1876,1.1898,1.1903,0,0,1.1342,1.135,1.1386,1.14,1.149,1.1516,1.1607,1.1689,1.1724,1.1813,1.1817,1.1846,1.1846,1.1876,1.1943,1.1947,0,0,0,1.1389,1.1414,1.1444,1.1497,1.1559,1.1614,1.1685,1.1716,1.1793,1.1762,1.1865,1.1866,1.1886,1.1898,1.1901,1.1922,1.1862,1.1862,1.1862,1.1404,1.1444,1.1507,1.1565,1.1616,1.169,1.1737,1.1792,1.1819,1.1843,1.187,1.1905,1.1918,1.1921,1.1941,1.1884,1.1884,1.1884,1.1884,1.1467,1.1511,1.1545,1.1619,1.1663,1.1728,1.1802,1.182,1.1889,1.1887,1.1906,1.1902,1.1924,1.1944,1.1883,1.1883,1.1883,1.1883,1.1883,1.1482,1.1511,1.1546,1.1628,1.1688,1.1747,1.1812,1.1851,1.1888,1.1907,1.1942,1.1943,1.195,1.192,1.1921,1.1921,1.1921,1.1921,1.1921,1.1485,1.1526,1.1573,1.1644,1.1685,1.1744,1.182,1.1863,1.1921,1.1945,1.1946,1.1973,1.1917,1.1903,1.1923,1.1923,1.1923,1.1922,1.1922,1.1537,1.1532,1.1605,1.1646,1.1735,1.1794,1.1843,1.1927,1.1969,1.2001,1.2025,1.1976,1.1988,1.1986,1.1975,1.2013,1.2013,1.2013,1.2013,1.1551,1.1561,1.1647,1.171,1.1776,1.1828,1.1917,1.1979,1.2043,1.2073,1.2073,1.2061,1.2057,1.2073,1.2068,1.2059,1.2117,1.2117,1.2117,1.1587,1.1605,1.167,1.1729,1.1802,1.1866,1.1952,1.2028,1.21,1.2122,1.2098,1.2093,1.2076,1.2067,1.2089,1.2081,1.2065,0,0]},{"header":{"parameterUnit":"m.s-1","parameterCategory":1,"la1":30.2992,"la2":30.254,"lo1":-89.0895,"lo2":-89.0443,"dy":0.0025,"dx":0.0025,"nx":19,"ny":19,"refTime":"2026-05-24T21:00:00:Z","depth":0,"parameterNumber":3,"parameterNumberName":"V-component_of_WINDS"},"data":[0,0,0,1.9752,1.9755,1.9938,1.9939,2.0147,2.0149,0,0,0,0,0,0,0,0,0,0,0,1.9682,1.9682,1.9751,1.9756,1.9938,1.9939,2.0147,2.0149,0,0,0,0,0,0,0,0,0,0,0,1.9681,1.9682,1.9683,1.9756,1.9938,1.9939,2.0147,2.0018,0,0,0,0,0,0,0,0,0,0,1.9845,1.9764,1.9682,1.9683,1.9757,1.9938,1.9939,2.0012,2.0026,2.0054,0,2.0073,0,2.0114,2.0161,2.0162,0,0,0,1.9768,1.9753,1.9816,1.9683,1.9759,1.9937,1.9859,2.002,2.0036,2.0072,2.0076,2.0085,2.0118,2.0162,2.0163,2.028,2.028,0,0,1.9758,1.9706,1.9805,1.9826,1.9795,1.9853,1.9865,2.003,2.0032,2.0077,2.009,2.0121,2.0164,2.0165,2.0281,2.028,0,0,0,1.972,1.9698,1.9759,1.9816,1.9851,1.9858,1.9871,2.0025,2.0049,2.0093,2.0123,2.0165,2.0167,2.0281,2.028,2.0229,0,0,0,1.9715,1.9677,1.9754,1.9724,1.9847,1.994,1.9862,2.0037,2.0058,2.0122,2.0165,2.0169,2.0281,2.0281,2.023,2.0213,0,0,0,1.9675,1.9672,1.9693,1.9721,1.9797,1.9939,1.9972,2.0043,2.0076,2.0162,2.0169,2.0281,2.0281,2.0232,2.0216,2.0229,0,0,0,1.9618,1.9645,1.9691,1.9734,1.9795,1.9905,1.9972,2.0057,2.0124,2.0166,2.0281,2.0281,2.0232,2.0217,2.023,2.023,2.0226,0,0,1.9623,1.9643,1.9673,1.972,1.9807,1.9881,1.9963,2.0074,2.013,2.0227,2.0231,2.023,2.0216,2.0229,2.0218,2.0214,0,0,0,1.9657,1.9677,1.9711,1.9773,1.9859,1.9931,2.0035,2.0077,2.0162,2.0169,2.024,2.0233,2.0243,2.0246,2.0242,2.0255,2.0279,2.028,2.028,1.9589,1.9659,1.9712,1.9804,1.9863,1.9971,2.0026,2.01,2.0153,2.0169,2.0198,2.0183,2.0184,2.0182,2.0193,2.0204,2.0204,2.0204,2.0204,1.9603,1.9642,1.9713,1.9789,1.9863,1.9929,2.0034,2.0069,2.0142,2.0166,2.0179,2.02,2.0175,2.0189,2.0201,2.0201,2.0202,2.0202,2.0202,1.9566,1.9597,1.9647,1.9745,1.9812,1.9905,1.9971,2.0036,2.0098,2.0111,2.0149,2.015,2.0159,2.0124,2.0124,2.0124,2.0124,2.0124,2.0124,1.9508,1.9566,1.9614,1.9707,1.9756,1.9828,1.9937,1.9988,2.006,2.0103,2.0103,2.0155,2.016,2.0159,2.0123,2.0124,2.0124,2.0124,2.0124,1.9496,1.9509,1.9582,1.963,1.9746,1.9809,1.9892,1.9989,2.004,2.007,2.012,2.0113,2.0139,2.0142,2.0142,2.0105,2.0105,2.0105,2.0105,1.9464,1.9484,1.9574,1.9647,1.9728,1.981,1.9891,1.9976,2.0067,2.0103,2.0118,2.0124,2.0124,2.015,2.0153,2.0155,2.0121,2.0121,2.0121,1.9461,1.9491,1.9547,1.9635,1.9731,1.9812,1.989,1.9973,2.0078,2.0123,2.0133,2.0132,2.0143,2.0142,2.0186,2.0189,2.0193,0,0]}]]